JBU957 KICT-KFLL

Flight info

Callsign JBU957
Flight time N/A
Altitude 35000
Route BURDN CHELI ACORI TEEKY3
Aircraft A21N/M-SDE2E3FGHIRWXY/LB1

Departure

Time 2026-04-26 08:01
Airport Wichita Dwight D. Eisenhower National Airport (KICT)

Arrival

Time N/A
Airport Fort Lauderdale Hollywood International Airport (KFLL)
Time Latitude Longitude Altitude Speed Heading
2026-04-26 07:28 37.65413 -97.43251 1328 ft 0 kts 97°
2026-04-26 07:43 37.65414 -97.43263 1328 ft 2 kts 97°
2026-04-26 07:44 37.65416 -97.43282 1328 ft 2 kts 97°
2026-04-26 07:44 37.65418 -97.43301 1328 ft 2 kts 97°
2026-04-26 07:44 37.65418 -97.43320 1328 ft 2 kts 68°
2026-04-26 07:44 37.65416 -97.43323 1328 ft 0 kts 64°
2026-04-26 07:48 37.65414 -97.43329 1328 ft 2 kts 61°
2026-04-26 07:48 37.65404 -97.43342 1328 ft 2 kts 31°
2026-04-26 07:49 37.65390 -97.43349 1328 ft 2 kts
2026-04-26 07:49 37.65375 -97.43349 1328 ft 2 kts 345°
2026-04-26 07:49 37.65362 -97.43340 1328 ft 2 kts 324°
2026-04-26 07:50 37.65336 -97.43321 1328 ft 2 kts 329°
2026-04-26 07:50 37.65324 -97.43311 1328 ft 2 kts 329°
2026-04-26 07:50 37.65310 -97.43301 1328 ft 2 kts 330°
2026-04-26 07:50 37.65297 -97.43292 1328 ft 1 kts 329°
2026-04-26 07:51 37.65295 -97.43291 1328 ft 0 kts 329°
2026-04-26 07:52 37.65297 -97.43291 1328 ft 2 kts 329°
2026-04-26 07:53 37.65328 -97.43324 1328 ft 5 kts 287°
2026-04-26 07:53 37.65307 -97.43370 1328 ft 6 kts 200°
2026-04-26 07:53 37.65260 -97.43351 1328 ft 8 kts 150°
2026-04-26 07:53 37.65210 -97.43314 1328 ft 8 kts 150°
2026-04-26 07:54 37.65138 -97.43261 1327 ft 13 kts 149°
2026-04-26 07:54 37.65055 -97.43198 1325 ft 14 kts 149°
2026-04-26 07:54 37.64965 -97.43194 1324 ft 13 kts 202°
2026-04-26 07:54 37.64907 -97.43270 1324 ft 11 kts 254°
2026-04-26 07:55 37.64898 -97.43375 1324 ft 12 kts 269°
2026-04-26 07:55 37.64893 -97.43478 1325 ft 10 kts 262°
2026-04-26 07:55 37.64884 -97.43572 1325 ft 10 kts 265°
2026-04-26 07:55 37.64877 -97.43665 1325 ft 10 kts 265°
2026-04-26 07:56 37.64870 -97.43764 1325 ft 12 kts 265°
2026-04-26 07:56 37.64831 -97.43848 1324 ft 12 kts 204°
2026-04-26 07:56 37.64746 -97.43889 1323 ft 13 kts 200°
2026-04-26 07:56 37.64656 -97.43928 1321 ft 14 kts 199°
2026-04-26 07:57 37.64560 -97.43968 1319 ft 14 kts 198°
2026-04-26 07:57 37.64462 -97.44014 1317 ft 15 kts 204°
2026-04-26 07:57 37.64358 -97.44068 1315 ft 16 kts 201°
2026-04-26 07:57 37.64251 -97.44116 1313 ft 16 kts 196°
2026-04-26 07:58 37.64141 -97.44163 1311 ft 16 kts 201°
2026-04-26 07:58 37.64019 -97.44219 1310 ft 21 kts 199°
2026-04-26 07:58 37.63882 -97.44277 1308 ft 20 kts 198°
2026-04-26 07:58 37.63754 -97.44332 1309 ft 18 kts 204°
2026-04-26 07:59 37.63644 -97.44389 1310 ft 16 kts 201°
2026-04-26 07:59 37.63544 -97.44435 1311 ft 14 kts 201°
2026-04-26 07:59 37.63495 -97.44522 1312 ft 11 kts 276°
2026-04-26 07:59 37.63532 -97.44583 1315 ft 8 kts 358°
2026-04-26 08:00 37.63646 -97.44534 1313 ft 45 kts 21°
2026-04-26 08:00 37.64207 -97.44270 1312 ft 122 kts 20°
2026-04-26 08:00 37.65204 -97.43803 1351 ft 180 kts 22°
2026-04-26 08:00 37.66446 -97.43226 1896 ft 194 kts 22°
2026-04-26 08:01 37.67666 -97.42669 2814 ft 193 kts 23°
2026-04-26 08:01 37.68935 -97.41991 3357 ft 201 kts 30°
2026-04-26 08:01 37.70111 -97.40970 3658 ft 212 kts 55°
2026-04-26 08:01 37.70602 -97.39212 3953 ft 223 kts 95°
2026-04-26 08:02 37.70012 -97.37370 4251 ft 239 kts 133°
2026-04-26 08:02 37.68543 -97.36318 4555 ft 258 kts 167°
2026-04-26 08:02 37.66694 -97.36361 5012 ft 271 kts 193°
2026-04-26 08:02 37.64884 -97.36948 5646 ft 274 kts 186°
2026-04-26 08:03 37.63007 -97.36629 6215 ft 275 kts 152°
2026-04-26 08:03 37.61600 -97.35073 6781 ft 276 kts 120°
2026-04-26 08:03 37.60934 -97.32803 7347 ft 279 kts 105°
2026-04-26 08:03 37.60344 -97.30476 7856 ft 286 kts 110°
2026-04-26 08:04 37.59539 -97.28124 8399 ft 292 kts 116°
2026-04-26 08:04 37.58591 -97.25850 8936 ft 297 kts 120°
2026-04-26 08:04 37.57538 -97.23592 9463 ft 302 kts 122°
2026-04-26 08:04 37.56417 -97.21336 9958 ft 308 kts 124°
2026-04-26 08:05 37.55246 -97.19055 10347 ft 317 kts 124°
2026-04-26 08:05 37.54019 -97.16710 10595 ft 331 kts 124°
2026-04-26 08:05 37.52716 -97.14237 10838 ft 345 kts 125°
2026-04-26 08:05 37.51366 -97.11685 11145 ft 357 kts 125°
2026-04-26 08:06 37.49974 -97.09054 11614 ft 363 kts 125°
2026-04-26 08:06 37.48575 -97.06409 12150 ft 366 kts 125°
2026-04-26 08:06 37.47170 -97.03757 12895 ft 362 kts 126°
2026-04-26 08:06 37.45816 -97.01195 13780 ft 351 kts 126°
2026-04-26 08:07 37.44472 -96.98660 14673 ft 340 kts 126°
2026-04-26 08:07 37.43198 -96.96260 15476 ft 331 kts 127°
2026-04-26 08:07 37.41928 -96.93874 16053 ft 329 kts 127°
2026-04-26 08:07 37.40652 -96.91484 16523 ft 330 kts 127°
2026-04-26 08:08 37.39392 -96.89059 16990 ft 332 kts 126°
2026-04-26 08:08 37.38152 -96.86597 17454 ft 334 kts 126°
2026-04-26 08:08 37.36916 -96.84131 17906 ft 335 kts 126°
2026-04-26 08:08 37.35682 -96.81671 18339 ft 337 kts 126°
2026-04-26 08:09 37.34426 -96.79176 18734 ft 340 kts 126°
2026-04-26 08:09 37.33163 -96.76670 19110 ft 343 kts 126°
2026-04-26 08:09 37.31874 -96.74120 19474 ft 346 kts 126°
2026-04-26 08:09 37.30589 -96.71574 19835 ft 350 kts 126°
2026-04-26 08:10 37.29273 -96.68976 20195 ft 353 kts 126°
2026-04-26 08:10 37.27956 -96.66376 20553 ft 356 kts 126°
2026-04-26 08:10 37.26630 -96.63760 20896 ft 359 kts 126°
2026-04-26 08:10 37.25286 -96.61112 21242 ft 362 kts 126°
2026-04-26 08:11 37.23936 -96.58450 21585 ft 365 kts 126°
2026-04-26 08:11 37.22564 -96.55747 21913 ft 368 kts 126°
2026-04-26 08:11 37.21176 -96.53018 22247 ft 371 kts 126°
2026-04-26 08:11 37.19788 -96.50288 22567 ft 374 kts 126°
2026-04-26 08:12 37.18390 -96.47543 22899 ft 376 kts 126°
2026-04-26 08:12 37.16974 -96.44765 23231 ft 379 kts 126°
2026-04-26 08:12 37.15554 -96.41981 23542 ft 382 kts 125°
2026-04-26 08:12 37.14139 -96.39208 23844 ft 385 kts 125°
2026-04-26 08:13 37.12680 -96.36351 24156 ft 388 kts 125°
2026-04-26 08:13 37.11222 -96.33500 24469 ft 390 kts 126°
2026-04-26 08:13 37.09764 -96.30648 24757 ft 393 kts 126°
2026-04-26 08:13 37.08285 -96.27760 25023 ft 396 kts 126°
2026-04-26 08:14 37.06792 -96.24849 25308 ft 399 kts 126°
2026-04-26 08:14 37.05296 -96.21930 25595 ft 401 kts 126°
2026-04-26 08:14 37.03796 -96.19007 25874 ft 403 kts 126°
2026-04-26 08:14 37.02279 -96.16055 26139 ft 406 kts 126°
2026-04-26 08:15 37.00756 -96.13089 26407 ft 408 kts 126°
2026-04-26 08:15 36.99214 -96.10094 26675 ft 411 kts 126°
2026-04-26 08:15 36.97661 -96.07080 26940 ft 413 kts 126°
2026-04-26 08:15 36.96116 -96.04083 27202 ft 415 kts 126°
2026-04-26 08:16 36.94556 -96.01061 27456 ft 418 kts 125°
2026-04-26 08:16 36.93045 -95.97897 27686 ft 421 kts 122°
2026-04-26 08:16 36.91630 -95.94707 27946 ft 423 kts 121°
2026-04-26 08:16 36.90223 -95.91498 28196 ft 426 kts 121°
2026-04-26 08:17 36.88795 -95.88236 28428 ft 428 kts 121°
2026-04-26 08:17 36.87363 -95.84972 28667 ft 430 kts 121°
2026-04-26 08:17 36.85921 -95.81689 28893 ft 432 kts 121°
2026-04-26 08:17 36.84488 -95.78433 29123 ft 434 kts 121°
2026-04-26 08:18 36.83024 -95.75114 29353 ft 436 kts 121°
2026-04-26 08:18 36.81573 -95.71829 29582 ft 438 kts 121°
2026-04-26 08:18 36.80095 -95.68488 29804 ft 440 kts 121°
2026-04-26 08:18 36.78610 -95.65134 30015 ft 442 kts 121°
2026-04-26 08:19 36.77135 -95.61800 30227 ft 443 kts 121°
2026-04-26 08:19 36.75651 -95.58453 30436 ft 445 kts 121°
2026-04-26 08:19 36.74159 -95.55090 30643 ft 446 kts 121°
2026-04-26 08:19 36.72652 -95.51704 30842 ft 448 kts 121°
2026-04-26 08:20 36.71144 -95.48315 31030 ft 450 kts 121°
2026-04-26 08:20 36.69619 -95.44894 31230 ft 451 kts 121°
2026-04-26 08:20 36.68090 -95.41464 31409 ft 453 kts 121°
2026-04-26 08:20 36.66576 -95.38071 31591 ft 455 kts 121°
2026-04-26 08:21 36.65041 -95.34637 31777 ft 456 kts 122°
2026-04-26 08:21 36.63492 -95.31172 31930 ft 458 kts 122°
2026-04-26 08:21 36.61948 -95.27722 32096 ft 459 kts 122°
2026-04-26 08:21 36.60394 -95.24255 32246 ft 461 kts 122°
2026-04-26 08:22 36.58834 -95.20785 32399 ft 462 kts 122°
2026-04-26 08:22 36.57254 -95.17263 32539 ft 464 kts 122°
2026-04-26 08:22 36.55690 -95.13789 32702 ft 465 kts 122°
2026-04-26 08:22 36.54115 -95.10288 32849 ft 467 kts 122°
2026-04-26 08:23 36.52511 -95.06728 32991 ft 468 kts 122°
2026-04-26 08:23 36.50936 -95.03234 33146 ft 469 kts 122°
2026-04-26 08:23 36.49343 -94.99704 33306 ft 470 kts 122°
2026-04-26 08:23 36.47730 -94.96137 33426 ft 472 kts 122°
2026-04-26 08:24 36.46137 -94.92617 33571 ft 473 kts 122°
2026-04-26 08:24 36.44531 -94.89075 33711 ft 474 kts 122°
2026-04-26 08:24 36.42911 -94.85503 33821 ft 476 kts 122°
2026-04-26 08:24 36.41282 -94.81914 33967 ft 477 kts 122°
2026-04-26 08:25 36.39651 -94.78323 34096 ft 478 kts 122°
2026-04-26 08:25 36.38032 -94.74764 34218 ft 480 kts 122°
2026-04-26 08:25 36.36377 -94.71130 34343 ft 481 kts 122°
2026-04-26 08:25 36.34744 -94.67549 34465 ft 483 kts 122°
2026-04-26 08:26 36.33099 -94.63945 34586 ft 484 kts 122°
2026-04-26 08:26 36.31440 -94.60316 34702 ft 486 kts 122°
2026-04-26 08:26 36.29769 -94.56661 34805 ft 487 kts 122°
2026-04-26 08:26 36.28085 -94.52985 34836 ft 491 kts 122°
2026-04-26 08:27 36.24706 -94.45622 34853 ft 499 kts 122°
2026-04-26 08:27 36.21284 -94.38172 34851 ft 501 kts 123°
2026-04-26 08:28 36.17844 -94.30707 34851 ft 501 kts 123°
2026-04-26 08:28 36.14384 -94.23216 34858 ft 502 kts 123°
2026-04-26 08:29 36.10918 -94.15726 34865 ft 502 kts 123°
2026-04-26 08:29 36.07471 -94.08292 34858 ft 502 kts 123°
2026-04-26 08:30 36.03991 -94.00803 34857 ft 502 kts 123°
2026-04-26 08:30 36.00526 -93.93360 34860 ft 502 kts 123°
2026-04-26 08:31 35.97061 -93.85939 34851 ft 502 kts 123°
2026-04-26 08:31 35.93562 -93.78465 34865 ft 502 kts 123°
2026-04-26 08:32 35.90072 -93.71019 34856 ft 503 kts 123°
2026-04-26 08:32 35.86598 -93.63627 34866 ft 503 kts 123°
2026-04-26 08:33 35.83084 -93.56168 34862 ft 503 kts 123°
2026-04-26 08:33 35.79571 -93.48723 34865 ft 503 kts 123°
2026-04-26 08:34 35.76080 -93.41337 34861 ft 502 kts 124°
2026-04-26 08:34 35.72558 -93.33913 34861 ft 503 kts 124°
2026-04-26 08:35 35.69026 -93.26477 34858 ft 503 kts 124°
2026-04-26 08:35 35.65506 -93.19085 34860 ft 503 kts 124°
2026-04-26 08:36 35.61984 -93.11706 34868 ft 502 kts 124°
2026-04-26 08:36 35.58441 -93.04298 34866 ft 502 kts 124°
2026-04-26 08:37 35.54910 -92.96928 34866 ft 503 kts 124°
2026-04-26 08:37 35.51388 -92.89596 34866 ft 503 kts 124°
2026-04-26 08:38 35.47837 -92.82220 34866 ft 503 kts 124°
2026-04-26 08:38 35.44284 -92.74847 34865 ft 503 kts 124°
2026-04-26 08:39 35.40713 -92.67465 34864 ft 503 kts 125°
2026-04-26 08:39 35.37145 -92.60098 34864 ft 503 kts 124°
2026-04-26 08:40 35.33582 -92.52763 34865 ft 506 kts 125°
2026-04-26 08:40 35.29998 -92.45395 34864 ft 504 kts 125°
2026-04-26 08:41 35.26417 -92.38039 34864 ft 504 kts 125°
2026-04-26 08:41 35.22811 -92.30668 34868 ft 505 kts 126°
2026-04-26 08:42 35.19226 -92.23350 34882 ft 505 kts 126°
2026-04-26 08:42 35.15620 -92.16002 34875 ft 505 kts 126°
2026-04-26 08:43 35.12016 -92.08666 34881 ft 505 kts 126°
2026-04-26 08:43 35.08403 -92.01338 34878 ft 505 kts 127°
2026-04-26 08:44 35.04762 -91.93967 34883 ft 508 kts 126°
2026-04-26 08:44 35.01113 -91.86594 34878 ft 509 kts 126°
2026-04-26 08:45 34.97461 -91.79222 34877 ft 509 kts 126°
2026-04-26 08:45 34.93803 -91.71867 34880 ft 511 kts 126°
2026-04-26 08:46 34.90124 -91.64484 34879 ft 514 kts 126°
2026-04-26 08:46 34.86401 -91.57018 34878 ft 514 kts 126°
2026-04-26 08:47 34.82714 -91.49641 34878 ft 514 kts 126°
2026-04-26 08:47 34.78983 -91.42196 34876 ft 515 kts 126°
2026-04-26 08:48 34.75260 -91.34789 34874 ft 515 kts 126°
2026-04-26 08:48 34.71539 -91.27398 34869 ft 516 kts 126°
2026-04-26 08:49 34.67789 -91.19963 34871 ft 515 kts 126°
2026-04-26 08:49 34.64064 -91.12592 34872 ft 515 kts 126°
2026-04-26 08:50 34.60327 -91.05203 34869 ft 515 kts 126°
2026-04-26 08:50 34.56549 -90.97764 34865 ft 516 kts 126°
2026-04-26 08:51 34.50918 -90.86702 34861 ft 516 kts 126°
2026-04-26 08:52 34.47153 -90.79321 34869 ft 518 kts 126°
2026-04-26 08:52 34.43362 -90.71893 34870 ft 518 kts 126°
2026-04-26 08:53 34.39580 -90.64520 34881 ft 519 kts 126°
2026-04-26 08:53 34.35781 -90.57114 34887 ft 519 kts 126°
2026-04-26 08:54 34.31959 -90.49691 34899 ft 520 kts 125°
2026-04-26 08:54 34.28158 -90.42307 34896 ft 520 kts 125°
2026-04-26 08:55 34.24324 -90.34894 34895 ft 521 kts 126°
2026-04-26 08:55 34.20486 -90.27472 34890 ft 521 kts 126°
2026-04-26 08:56 34.16656 -90.20096 34887 ft 523 kts 126°
2026-04-26 08:56 34.12795 -90.12659 34892 ft 523 kts 126°
2026-04-26 08:57 34.08930 -90.05243 34897 ft 525 kts 126°
2026-04-26 08:57 34.05037 -89.97787 34888 ft 525 kts 125°
2026-04-26 08:58 34.01167 -89.90381 34886 ft 524 kts 126°
2026-04-26 08:58 33.97273 -89.82956 34882 ft 525 kts 125°
2026-04-26 08:59 33.93386 -89.75549 34885 ft 525 kts 125°
2026-04-26 08:59 33.89496 -89.68155 34883 ft 523 kts 125°
2026-04-26 09:00 33.85619 -89.60801 34883 ft 522 kts 125°
2026-04-26 09:00 33.81740 -89.53464 34885 ft 520 kts 125°
2026-04-26 09:01 33.77870 -89.46150 34884 ft 518 kts 124°
2026-04-26 09:01 33.74009 -89.38873 34893 ft 519 kts 124°
2026-04-26 09:02 33.70105 -89.31543 34896 ft 518 kts 125°
2026-04-26 09:02 33.66250 -89.24298 34904 ft 518 kts 126°
2026-04-26 09:03 33.62378 -89.17031 34907 ft 517 kts 126°
2026-04-26 09:03 33.58500 -89.09785 34900 ft 516 kts 126°
2026-04-26 09:04 33.54650 -89.02597 34904 ft 515 kts 126°
2026-04-26 09:04 33.50767 -88.95376 34901 ft 516 kts 126°
2026-04-26 09:05 33.46888 -88.88159 34905 ft 515 kts 126°
2026-04-26 09:05 33.43034 -88.81014 34903 ft 516 kts 125°
2026-04-26 09:06 33.39135 -88.73794 34901 ft 517 kts 126°
2026-04-26 09:06 33.35239 -88.66593 34903 ft 516 kts 125°
2026-04-26 09:07 33.31354 -88.59430 34893 ft 517 kts 125°
2026-04-26 09:07 33.27459 -88.52253 34889 ft 517 kts 125°
2026-04-26 09:08 33.23543 -88.45055 34881 ft 516 kts 125°
2026-04-26 09:08 33.19632 -88.37892 34877 ft 518 kts 125°
2026-04-26 09:09 33.15693 -88.30682 34878 ft 519 kts 126°
2026-04-26 09:09 33.11754 -88.23486 34876 ft 518 kts 126°
2026-04-26 09:10 33.07815 -88.16307 34874 ft 519 kts 125°
2026-04-26 09:10 33.03854 -88.09095 34878 ft 520 kts 125°
2026-04-26 09:11 32.99918 -88.01954 34876 ft 520 kts 125°
2026-04-26 09:11 32.95934 -87.94730 34883 ft 521 kts 125°
2026-04-26 09:12 32.91975 -87.87569 34881 ft 520 kts 125°
2026-04-26 09:12 32.88023 -87.80431 34887 ft 516 kts 125°
2026-04-26 09:13 32.84062 -87.73295 34883 ft 517 kts 125°
2026-04-26 09:13 32.80125 -87.66214 34880 ft 515 kts 125°
2026-04-26 09:14 32.78142 -87.62658 34883 ft 516 kts 125°